STARLINK-37963, 69709

Orbit data source: Space-Track

STARLINK-37963, 69709 is a payload satellite owned by SpaceX/Seattle (US) in SSO that was launched on Sun, 28 Jun 2026 UTC via an FALCON 9 launch vehicle from the Air Force Western Test Range (AFWTR). Payload-class satellites include a variety of spacecraft equipped with specific instruments for various scientific and technological missions. These include communications satellites like Starlink; space stations such as the ISS; scientific satellites like the Hubble; Earth observation satellites from companies like Planet Labs, Umbra, and HawkEye 360; GPS; miniature CubeSats for education and research; and military/defense satellites.

Loading next visibility...
Identifier
69709, 2026-147F
Orbit
SSO
Country
Flag of USUS
Related business
Manufacturer
SpaceX/Seattle
Mission
Operational Commercial Communications
Bus & Motor
STARLINK V2MO, Unknown motor
Mass
575 kg wet, ~530 kg dry
Launch date (UTC)
2026-06-28 (2 months ago)
Launch vehicle
FALCON 9
Launch site
Air Force Western Test Range (AFWTR)
Object type
Payload
Rocket body
Debris
Shape & HBR
Box + 1 Pan, 17.7 m
Radar Cross Section
41.120 m², Large (>1 m²)

Expand to show TLE details & history
Last TLE update: 15 hours ago

TLE from 15 hours ago
0 STARLINK-37963
1 69709U 26147F   26236.82794630  .00019653  00000-0  60954-3 0  9990
2 69709  97.2836 273.5317 0001374 234.7200 125.3915 15.33442433 10143
Epoch: 2026-08-24T19:52Z
TLE epoch observation values (Epoch: 2026-08-24T19:52:14.560Z)
Latitude
0.00005°
Longitude
2.36697°
Altitude
469.208 km
Speed
7.631 km/s
True Right ascension
18h 14m 07s
True Declination
0° 00' 00"
Sunlit
Object was in full shadow at epoch
Visualization orbit readout
Latitude
Unknown
Longitude
Unknown
Altitude
Unknown
Speed
Unknown
Apparent Right ascension
Unknown
Apparent Declination
Unknown
Sunlit
N/A
Visualization observer readout
Local Sidereal Time
01:50:02
Azimuth
Unknown
Elevation
Unknown
Doppler factor
Unknown
Orbital elements
Apogee altitude
463.433 km
Perigee altitude
461.554 km
Semi-major axis
6,840.631 km
Eccentricity
0.00014
Inclination
97.2836°
RAAN
273.5317°
Arg. of periapsis
234.72°
True anomaly
125.40433°
Mean anomaly
125.3915°
Eccentric anomaly
125.39792°
Mean motion
3.83618 °/min
Orbital period
93.84 mins
BSTAR
0.00060954
Loading maneuver chart data...
Computing Atmospheric mass density...
Loading historical data...
Loading historical data...
Loading historical data...
Loading historical data...
Loading historical data...
Loading historical data...
Loading historical data...

Documentation

Showing up to 5 results
|